| time (UTC) | temp C | wind direction | speed KPH | gust KPH | rain 1hr cm | rain 24hr cm | rain mn cm | humidity % | barometer mb |
| 20260504100517 | 13 | 0.0 | 4.8 | 0.00 | 0.00 | 0.00 | 53 | 1011.7 | |
| 20260504080537 | 15 | 0 | 1.6 | 4.8 | 0.00 | 0.00 | 0.00 | 44 | 1011.4 |
| 20260504050515 | 22 | 293 | 3.2 | 11.3 | 0.00 | 0.00 | 0.00 | 26 | 1010.8 |
| 20260504045035 | 23 | 248 | 1.6 | 8.0 | 0.00 | 0.00 | 0.00 | 24 | 1010.6 |
| 20260504043515 | 23 | 293 | 3.2 | 8.0 | 0.00 | 0.00 | 0.00 | 23 | 1010.6 |
| 20260504042015 | 23 | 315 | 1.6 | 9.7 | 0.00 | 0.00 | 0.00 | 25 | 1010.3 |
| 20260504040515 | 23 | 270 | 3.2 | 6.4 | 0.00 | 0.00 | 0.00 | 25 | 1010.3 |
| 20260504035055 | 21 | 270 | 1.6 | 4.8 | 0.00 | 0.00 | 0.00 | 30 | 1010.1 |
| 20260504033515 | 21 | 338 | 1.6 | 4.8 | 0.00 | 0.00 | 0.00 | 29 | 1010.1 |
| 20260504032015 | 21 | 158 | 1.6 | 3.2 | 0.00 | 0.00 | 0.00 | 34 | 1010.0 |
| 20260504030515 | 21 | 0.0 | 3.2 | 0.00 | 0.00 | 0.00 | 32 | 1010.1 | |
| 20260504025015 | 21 | 0.0 | 1.6 | 0.00 | 0.00 | 0.00 | 37 | 1009.9 | |
| 20260504023516 | 22 | 158 | 1.6 | 6.4 | 0.00 | 0.00 | 0.00 | 35 | 1009.9 |
| 20260504022017 | 23 | 0.0 | 1.6 | 0.00 | 0.00 | 0.00 | 32 | 1009.8 | |
| 20260504020517 | 23 | 248 | 1.6 | 4.8 | 0.00 | 0.00 | 0.00 | 33 | 1009.9 |
| 20260504015017 | 23 | 158 | 1.6 | 3.2 | 0.00 | 0.00 | 0.00 | 36 | 1009.9 |
| 20260504013517 | 24 | 0.0 | 1.6 | 0.00 | 0.00 | 0.00 | 33 | 1009.9 | |
| 20260504012017 | 25 | 248 | 4.8 | 11.3 | 0.00 | 0.00 | 0.00 | 30 | 1010.1 |
| 20260504010517 | 25 | 158 | 3.2 | 6.4 | 0.00 | 0.00 | 0.00 | 30 | 1010.2 |
| 20260504005017 | 26 | 113 | 3.2 | 6.4 | 0.00 | 0.00 | 0.00 | 28 | 1010.5 |
| 20260504003517 | 26 | 90 | 1.6 | 4.8 | 0.00 | 0.00 | 0.00 | 26 | 1010.5 |
| 20260504002017 | 26 | 158 | 1.6 | 4.8 | 0.00 | 0.00 | 0.00 | 26 | 1010.8 |
| 20260504000517 | 26 | 180 | 4.8 | 8.0 | 0.00 | 0.00 | 0.00 | 27 | 1010.9 |
| 20260503235734 | 26 | 180 | 3.2 | 6.4 | 0.00 | 0.00 | 0.00 | 28 | 1011.1 |
| 20260503231036 | 27 | 90 | 3.2 | 8.0 | 0.00 | 0.00 | 0.00 | 24 | 1011.7 |
| 20260503225515 | 27 | 68 | 4.8 | 8.0 | 0.00 | 0.00 | 0.00 | 25 | 1012.0 |
| 20260503224015 | 27 | 90 | 6.4 | 16.1 | 0.00 | 0.00 | 0.00 | 24 | 1012.2 |
| 20260503222515 | 28 | 90 | 4.8 | 12.9 | 0.00 | 0.00 | 0.00 | 24 | 1012.4 |
| 20260503221015 | 27 | 113 | 4.8 | 9.7 | 0.00 | 0.00 | 0.00 | 24 | 1012.7 |
| 20260503215515 | 27 | 90 | 4.8 | 11.3 | 0.00 | 0.00 | 0.00 | 24 | 1012.9 |
| 20260503214015 | 26 | 68 | 1.6 | 9.7 | 0.00 | 0.00 | 0.00 | 26 | 1013.0 |
| 20260503212515 | 23 | 180 | 4.8 | 8.0 | 0.00 | 0.00 | 0.00 | 29 | 1013.1 |
| 20260503211037 | 24 | 158 | 3.2 | 6.4 | 0.00 | 0.00 | 0.00 | 29 | 1013.5 |
| 20260503205517 | 23 | 180 | 3.2 | 6.4 | 0.00 | 0.00 | 0.00 | 30 | 1013.6 |
| 20260503204017 | 22 | 158 | 3.2 | 6.4 | 0.00 | 0.00 | 0.00 | 31 | 1013.8 |
| 20260503202557 | 21 | 203 | 4.8 | 6.4 | 0.00 | 0.00 | 0.00 | 37 | 1014.0 |
| 20260503201017 | 21 | 180 | 4.8 | 8.0 | 0.00 | 0.00 | 0.00 | 40 | 1014.2 |
| 20260503195517 | 24 | 113 | 3.2 | 9.7 | 0.00 | 0.00 | 0.00 | 30 | 1014.7 |
| 20260503194017 | 23 | 45 | 4.8 | 14.5 | 0.00 | 0.00 | 0.00 | 31 | 1015.0 |
| 20260503192517 | 22 | 90 | 4.8 | 12.9 | 0.00 | 0.00 | 0.00 | 33 | 1015.3 |
| 20260503191017 | 22 | 68 | 3.2 | 11.3 | 0.00 | 0.00 | 0.00 | 35 | 1015.7 |
| 20260503185517 | 21 | 90 | 4.8 | 9.7 | 0.00 | 0.00 | 0.00 | 34 | 1015.9 |
| 20260503184017 | 21 | 23 | 4.8 | 9.7 | 0.00 | 0.00 | 0.00 | 35 | 1016.0 |
| 20260503182537 | 21 | 90 | 4.8 | 9.7 | 0.00 | 0.00 | 0.00 | 35 | 1016.2 |
| 20260503181017 | 19 | 180 | 3.2 | 8.0 | 0.00 | 0.00 | 0.00 | 39 | 1016.2 |
| 20260503175517 | 18 | 158 | 3.2 | 6.4 | 0.00 | 0.00 | 0.00 | 42 | 1016.4 |
| 20260503174016 | 18 | 180 | 4.8 | 8.0 | 0.00 | 0.00 | 0.00 | 43 | 1016.6 |
| 20260503172516 | 18 | 68 | 3.2 | 4.8 | 0.00 | 0.00 | 0.00 | 43 | 1016.9 |
| 20260503171017 | 17 | 45 | 4.8 | 12.9 | 0.00 | 0.00 | 0.00 | 44 | 1017.4 |
| 20260503131016 | 9 | 0.0 | 0.0 | 0.00 | 0.00 | 0.00 | 62 | 1017.8 |